sat.trackr.live / text

‹ back to catalog

KUIPER-00065

NORAD 64525 · 2025-134AB

PAYLOAD ACTIVE UNKNOWN

§ Identity

Operator
Country
US
Launch date
2025-06-23
Launch site
AFETR
Launch vehicle
Mass (kg)
RCS (m²)

External: N2YO · Heavens-Above · Gunter

§ Orbital elements

Epoch: 2026-05-25T01:35:01.350240Z

Period
97.30 min
Inclination
51.9031°
Eccentricity
0.0000422
Mean motion
14.79937046 rev/d
Perigee alt
629.2 km
Apogee alt
629.8 km
Semi-major
7,007.7 km
B*
2.4290e-4
RAAN
262.9714°
Arg perigee
114.8124°
Mean anomaly
245.2882°
Rev number
5,126

§ Raw data

KUIPER-000651 64525U 25134AB  26145.06598785  .00001631  00000+0  24290-3 0  99932 64525  51.9031 262.9714 0000422 114.8124 245.2882 14.79937046 51268

JSON: /api/v1/satellites/64525 · /tle

For live sub-satellite position, see the globe view (requires WebGL).

§ Visibility from observer

Set your observer location to see the next 7 days of passes ≥ 10°. The values pass through the URL so the page stays shareable.

No JS? Fill the form by hand. The geolocation button needs JavaScript.